Regional Weather Roundup
Issued by NWS Charleston, SC

Current Version | Previous Version | Graphics & Text | Print | Product List | Glossary Off
Versions: 1 2 3 4 5 6 7 8 9 10 11 12 13 14 15 16 17 18 19 20 21 22 23 24 25 26 27 28 29 30 31 32 33 34 35 36 37 38 39 40 41 42 43 44 45 46 47 48 49 50

000
ASUS42 KCHS 252328
RWRCHS

REGIONAL WEATHER ROUNDUP
NATIONAL WEATHER SERVICE CHARLESTON SC
700 PM EDT THU AUG 25 2016

NOTE: "FAIR" INDICATES FEW OR NO CLOUDS BELOW 12,000 FEET WITH NO
SIGNIFICANT WEATHER AND/OR OBSTRUCTIONS TO VISIBILITY.

NOT ALL STATIONS ARE QUALITY CONTROLLED. USE DATA WITH CAUTION...
ESPECIALLY DEWPOINT OBSERVATIONS.

SCZ027-030-031-034>040-042>050-260000-
...SOUTHEAST SOUTH CAROLINA...

CITY           SKY/WX    TMP DP  RH WIND       PRES   REMARKS
N CHARLESTON   MOSUNNY   85  69  58 SE7       30.07S
WATERFRONT PRK   N/A     86  74  67 E9        30.06S HX  94
MOUNT PLEASANT FAIR      82  73  74 CALM      30.08S
JOHNS ISLAND   FAIR      82  73  74 E6        30.08S
PINOPOLIS        N/A     86  72  62 VRB3      30.00S HX  92
MONCKS CORNER  FAIR      82  68  61 S3        30.07S
SUMMERVILLE    FAIR      88  72  58 SE5       30.08S HX  94
BEAUFORT MCAS  SUNNY     86  72  62 SE8       30.07S HX  92
BEAUFORT ARPT  FAIR      82  72  69 E7        30.07S
HILTON HEAD IS SUNNY     90  73  58 E6        30.08S HX  98
WALTERBORO     CLEAR     90  61  37 NE3       30.08R
ALLENDALE      FAIR      90  64  43 E6        30.05S HX  91

...SOUTHERN MIDLANDS AND PEE DEE...

CITY           SKY/WX    TMP DP  RH WIND       PRES   REMARKS
GEORGETOWN     FAIR      81  70  69 E6        30.09S
KINGSTREE      FAIR      86  64  48 E3        30.07S
ORANGEBURG     SUNNY     89  65  44 SE9       30.06F HX  91
BARNWELL       NOT AVBL
AIKEN          FAIR      88  68  51 SE6       30.10S HX  91
MANNING        FAIR      86  66  51 S3        30.07F
COLUMBIA       MOSUNNY   91  68  46 E9        30.05F HX  95
SUMTER         SUNNY     90  66  45 SE7       30.05F HX  92
FLORENCE       SUNNY     90  66  45 E7        30.07F HX  92
MYRTLE BEACH   PTCLDY    84  64  51 SE12      30.10S
N MYRTLE BEACH CLEAR     83  70  64 S7        30.08F

$$

GAZ063-065-086>088-099>101-113>116-118-119-134>141-150-260000-
...SOUTHEAST GEORGIA...

CITY           SKY/WX    TMP DP  RH WIND       PRES   REMARKS
SAVANNAH ARPT  MOSUNNY   87  68  52 E14       30.06S HX  90
HUNTER AAF     SUNNY     85  74  70 E10       30.04S HX  93
FORT STEWART   SUNNY     86  70  59 SE8       30.03S HX  91
STATESBORO     SUNNY     90  67  45 E5        30.06S HX  93
SYLVANIA       NOT AVBL
CLAXTON        FAIR      90  65  43 NE5       30.05S HX  91

...CSRA...CENTRAL AND FAR SOUTHEAST GEORGIA...

CITY           SKY/WX    TMP DP  RH WIND       PRES   REMARKS
THOMSON        SUNNY     91  72  53 MISG      30.11S HX  98
AUGUSTA-BUSH   SUNNY     91  67  44 SE5       30.04F HX  94
AUGUSTA-DANIEL MOSUNNY   91  68  46 SE5       30.07F HX  95
SWAINSBORO     FAIR      91  63  38 E7        30.06S HX  92
VIDALIA        SUNNY     90  64  43 NE9       30.06S HX  91
EASTMAN        FAIR      91  45  20 E5        30.07S
HAZLEHURST     FAIR      91  63  40 CALM      30.04S HX  92
ALMA           MOSUNNY   89  66  46 E5        30.04S HX  91
WAYCROSS         N/A     89  73  59 E13       30.05R HX  96
JESUP          FAIR      86  75  70 SE9       30.06S HX  95
BAXLEY         FAIR      90  72  55 E6        30.04S HX  96
BRUNSWICK      SUNNY     84  75  74 E15       30.07S HX  92
SAINT SIMONS   MOSUNNY   85  74  69 E15G21    30.05F HX  92

$$

SCZ027-028-034-036>038-045-046-048>050-GAZ119-141-260000-
...LAKE AND SUPPLEMENTAL COASTAL OBSERVATIONS...

STATION/POSITION TIME  TEMP    WIND        PRES    WAVE   SWELL
                       AIR SEA DIR/SP/G            HT/PER HT/PER/DIR
                 (UTC) (F)     (DEG/KT/KT) (MB)    (FT/S) (FT/S/D)
WINYAH BAY       2245   83     130/  7     1018.0S
LAKE MURRAY      2200   94      CALM  /  1 1017.3F
ACE BASIN NERRS  2200   87     110/  3     1018.0F
FORT PULASKI     2300   85 86              1018.7S
SAPELO ISLAND    2300   85      80/ 10     1018.0S

$$

ANZ835-935-AMZ111-154-330-350-352-354-370-450-454-472-260000-
...C-MAN AND BUOY OBSERVATIONS...

STATION/POSITION TIME  TEMP    WIND        PRES    WAVE   SWELL
                       AIR SEA DIR/SP/G            HT/PER HT/PER/DIR
                 (UTC) (F)     (DEG/KT/KT) (MB)    (FT/S) (FT/S/D)
BUOY 41004       2250   83 84   70/ 10/ 14 1017.7F   3/10   3/ 80/10
BUOY 41008       2250   83 85   70/ 14/ 17 1017.6F   4/ 5   2/100/10
FOLLY BEACH CMAN 2300   82     100/ 10/ 11 1018.7F
CAPERS NEARSHORE 2208   83 84  100/  8/ 12 1018.4F
FRIPP NEARSHORE  2308   83 86  110/ 12/ 16 1017.7S


STATION/POSITION TIME  TEMP    WIND        PRES    WAVE   SWELL
                       AIR SEA DIR/SP/G            HT/PER HT/PER/DIR
                 (UTC) (F)     (DEG/KT/KT) (MB)    (FT/S) (FT/S/D)
5E ST. MARYS GA  2301      85                N/A     5/ 5   2/100/11
FRYING PAN BUOY  2300   83 85   90/  8/ 10 1018.3F
BUOY 41025       2250   81 84  100/  4/  6 1019.1R   3/ 9   3/ 90/ 9
CAPE LOOKOUT NC  2300   81     110/  4/  5 1018.8R
BUOY 41002       2250   82 84   50/ 12/ 14 1017.2F   4/ 8   3/110/ 8
BUOY 41010       NOT AVBL
ST AUGUSTINE FL  2300   81 84   40/ 17/ 19 1017.7S


$$




USA.gov is the U.S. government's official web portal to all federal, state and local government web resources and services.